Showing default

COSMOS 1897, 18575

Orbit data source: Space-Track

COSMOS 1897, 18575 is a payload satellite owned by UNKS (CIS) in GEO that was launched on Thu, 26 Nov 1987 UTC via a PROTON-K/DM-2 launch vehicle from the Tyuratam Missile And Space Complex (TTMTR). Payload-class satellites include a variety of spacecraft equipped with specific instruments for various scientific and technological missions. These include communications satellites like Starlink; space stations such as the ISS; scientific satellites like the Hubble; Earth observation satellites from companies like Planet Labs, Umbra, and HawkEye 360; GPS; miniature CubeSats for education and research; and military/defense satellites.

Not visible in the next 10 days
Identifier
18575, 1987-096A
Orbit
GEO
Country
Flag of CISCIS
Related business
Manufacturer
NPO PM
Mission
Non-operational Defense Communications
Bus & Motor
KAUR-4 AL'TAIR, Unknown motor
Mass
2,400 kg wet, ~2,200 kg dry
Launch date (UTC)
1987-11-26 (38 years ago)
Launch vehicle
PROTON-K/DM-2
Launch site
Tyuratam Missile And Space Complex (TTMTR)
Object type
Payload
Rocket body
Debris
Shape & HBR
Cyl, 2.5 m
Radar Cross Section
9.425 m², Large (>1 m²)

Expand to show TLE details & history
Last TLE update: 1 day ago

TLE from 1 day ago
0 COSMOS 1897
1 18575U 87096A   26071.72871029 -.00000077  00000-0  00000-0 0  9993
2 18575  11.1577 327.5254 0005206 130.6003  46.6549  1.00323230140221
Epoch: 2026-03-12T17:29Z
TLE epoch observation values (Epoch: 2026-03-12T17:29:20.569Z)
Latitude
0.5203°
Longitude
72.19974°
Altitude
35,756.594 km
Speed
3.076 km/s
True Right ascension
09h 39m 38s
True Declination
0° 31' 11"
Sunlit
Object was in daylight at epoch
Visualization orbit readout
Latitude
Unknown
Longitude
Unknown
Altitude
Unknown
Speed
Unknown
Apparent Right ascension
Unknown
Apparent Declination
Unknown
Sunlit
N/A
Visualization observer readout
Local Sidereal Time
00:12:26
Azimuth
Unknown
Elevation
Unknown
Doppler factor
Unknown
Orbital elements
Apogee altitude
35,795.135 km
Perigee altitude
35,751.247 km
Semi-major axis
42,151.328 km
Eccentricity
0.00052
Inclination
11.1577°
RAAN
327.5254°
Arg. of periapsis
130.6003°
True anomaly
46.6983°
Mean anomaly
46.6549°
Eccentric anomaly
46.6766°
Mean motion
0.2508 °/min
Orbital period
1,435.41 mins
BSTAR
0
Loading maneuver chart data...
Computing Atmospheric mass density...
Loading historical data...
Loading historical data...
Loading historical data...
Loading historical data...
Loading historical data...
Loading historical data...
Loading historical data...

Documentation

Showing up to 5 results
|